This demonstration page uses our WeatherBlox Daily Observations layout. Learn more.

Left ArrowRight Arrow

38.80484, -77.04692

Hourly Observations for October 12, 2021

Temp ( °F °C ) Dew Point ( °F °C ) Humidity (%) Winds ( mph kmh ) Pressure ( in mb ) Visibility ( mi km ) Precip ( " mm )
12:52 am 00:52 Cloudy 68 20 60 15.6 76 76 NE 7 11 30.07 1018 10 16 0.00 0.00
1:52 am 01:52 Cloudy 67 19.4 60 15.6 79 79 ENE 8 13 30.07 1018 10 16 0.00 0.00
2:52 am 02:52 Cloudy 66 18.9 60 15.6 81 81 NE 9 15 30.07 1018 10 16 0.00 0.00
3:22 am 03:22 Cloudy 66 18.9 60 15.6 81 81 N 7 11 30.08 1019 10 16 0.00 0.00
3:34 am 03:34 Cloudy 66 18.9 60 15.6 81 81 N 8 13 30.08 1019 10 16 0.00 0.00
3:52 am 03:52 Cloudy with Mist and Fog 65 18.3 61 16.1 87 87 NNE 8 13 30.08 1019 6 10 0.00 0.00
4:26 am 04:26 Cloudy 66 18.9 60 15.6 81 81 NNE 9 15 30.08 1019 10 16 0.00 0.00
4:34 am 04:34 Cloudy 65 18.3 60 15.6 84 84 NNE 10 17 30.08 1019 10 16 0.00 0.00
4:52 am 04:52 Cloudy 65 18.3 60 15.6 84 84 NE 9 15 30.08 1019 10 16 0.00 0.00
5:00 am 05:00 Cloudy 65 18.3 60 15.6 84 84 NNE 7 11 30.08 1019 10 16 0.00 0.00
5:37 am 05:37 Cloudy 65 18.3 60 15.6 84 84 NNE 8 13 30.08 1019 10 16 0.00 0.00
5:44 am 05:44 Mostly Cloudy 64 17.8 60 15.6 87 87 NE 9 15 30.09 1019 10 16 0.00 0.00
5:52 am 05:52 Mostly Cloudy 64 17.8 60 15.6 87 87 NE 9 15 30.09 1019 10 16 0.00 0.00
5:59 am 05:59 Mostly Cloudy 64 17.8 60 15.6 87 87 NE 9 15 30.09 1019 10 16 0.00 0.00
6:44 am 06:44 Cloudy 65 18.3 60 15.6 84 84 NNE 9 15 30.09 1019 10 16 0.00 0.00
6:52 am 06:52 Cloudy 65 18.3 60 15.6 84 84 NNE 6 9 30.09 1019 10 16 0.00 0.00
7:52 am 07:52 Cloudy 65 18.3 60 15.6 84 84 NNE 8 13 30.11 1020 10 16 0.00 0.00
8:52 am 08:52 Cloudy 66 18.9 60 15.6 81 81 NE 7 11 30.12 1020 10 16 0.00 0.00
9:52 am 09:52 Cloudy with Drizzle 66 18.9 61 16.1 84 84 ENE 7 11 30.12 1020 4 6 0.00 0.00
10:02 am 10:02 Cloudy with Drizzle 66 18.9 62 16.7 87 87 NNE 5 7 30.12 1020 3 4 0.00 0.00
10:08 am 10:08 Cloudy with Drizzle 67 19.4 62 16.7 84 84 N 3 6 30.12 1020 4 6 0.00 0.00
10:52 am 10:52 Cloudy 68 20 61 16.1 78 78 N 5 7 30.12 1020 7 11 0.00 0.00
11:52 am 11:52 Cloudy with Drizzle 68 20 62 16.7 81 81 N 6 9 30.11 1020 4 6 0.00 0.00
12:02 pm 12:02 Cloudy with Drizzle 68 20 63 17.2 84 84 N 6 9 30.12 1020 3 4 0.00 0.00
12:17 pm 12:17 Cloudy with Drizzle 68 20 63 17.2 84 84 NNE 3 6 30.11 1020 4 6 0.00 0.00
12:52 pm 12:52 Cloudy 70 21.1 63 17.2 79 79 VRB 3 6 30.11 1020 10 16 0.00 0.00
1:18 pm 13:18 Cloudy 71 21.7 62 16.7 73 73 NNE 3 6 30.10 1019 10 16 0.00 0.00
1:52 pm 13:52 Cloudy 72 22.2 63 17.2 73 73 NE 5 7 30.09 1019 10 16 0.00 0.00
2:52 pm 14:52 Cloudy 71 21.7 62 16.7 73 73 ENE 3 6 30.06 1018 10 16 0.00 0.00
3:52 pm 15:52 Cloudy 71 21.7 63 17.2 76 76 NE 6 9 30.05 1018 10 16 0.00 0.00
4:44 pm 16:44 Cloudy 72 22.2 63 17.2 73 73 Calm 30.06 1018 10 16 0.00 0.00
4:52 pm 16:52 Cloudy 72 22.2 63 17.2 73 73 Calm 30.06 1018 10 16 0.00 0.00
5:52 pm 17:52 Cloudy 71 21.7 63 17.2 76 76 Calm 30.06 1018 10 16 0.00 0.00
6:52 pm 18:52 Cloudy with Light Rain 68 20 63 17.2 84 84 NNW 7 11 30.06 1018 5 8 0.00 0.00
6:54 pm 18:54 Cloudy with Light Rain 68 20 63 17.2 84 84 NNW 7 11 30.07 1018 4 6 0.00 0.00
7:49 pm 19:49 Cloudy with Light Rain 66 19 64 18 94 94 N 5 7 30.07 1018 4 6 0.06 1.52
7:52 pm 19:52 Cloudy with Light Rain 67 19.4 64 17.8 91 91 N 5 7 30.07 1018 4 6 0.06 1.52
8:18 pm 20:18 Cloudy 67 19.4 64 17.8 91 91 N 5 7 30.07 1018 8 13 0.00 0.00
8:52 pm 20:52 Mostly Cloudy 67 19.4 64 17.8 91 91 ESE 5 7 30.06 1018 10 16 0.00 0.00
9:13 pm 21:13 Mostly Cloudy 67 19.4 64 17.8 91 91 Calm 30.07 1018 9 14 0.00 0.00
9:52 pm 21:52 Mostly Cloudy 68 20 64 17.8 87 87 ENE 3 6 30.07 1018 10 16 0.00 0.00
10:40 pm 22:40 Cloudy 68 20 64 17.8 87 87 Calm 30.08 1019 10 16 0.00 0.00
10:48 pm 22:48 Cloudy 68 20 64 18 88 88 Calm 30.08 1019 10 16 0.00 0.00
10:52 pm 22:52 Cloudy 68 20 64 17.8 87 87 W 3 6 30.08 1019 10 16 0.00 0.00
11:52 pm 23:52 Cloudy 67 19.4 64 17.8 91 91 WNW 6 9 30.07 1018 10 16 0.00 0.00

Powered by AerisWeather